Location: Utrecht
(52.0907°N, 5.1214°E)
Time: 09:52:29
(UTC+02:00)

CUBESAT XI-V - Visible Passes

Search period start: 27 June 2022 00:00
Search period end: 07 July 2022 00:00
Orbit: 666 x 692 km, 98.1° (Epoch: 27 June)

Date Brightness Start Highest point End Pass type
(mag) Time Alt. Az. Time Alt. Az. Time Alt. Az.
27 Jun ? 02:34:33 10° SE 02:38:57 46° ENE 02:43:21 10° N visible
27 Jun ? 04:12:32 10° SSW 04:16:26 27° W 04:20:20 10° NW visible
28 Jun ? 01:34:55 10° E 01:37:43 16° NE 01:40:31 10° NNE visible
28 Jun ? 03:10:00 11° SSE 03:14:23 90° WSW 03:19:02 10° NNW visible
29 Jun ? 02:08:56 10° ESE 02:12:52 29° ENE 02:16:48 10° N visible
29 Jun ? 03:45:56 12° S 03:50:00 44° W 03:54:25 10° NNW visible
30 Jun ? 01:10:58 10° ENE 01:11:51 10° NE 01:12:44 10° NE visible
30 Jun ? 02:43:41 10° SE 02:48:11 55° ENE 02:52:40 10° N visible
30 Jun ? 04:22:11 10° SW 04:25:47 22° W 04:29:25 10° NW visible
01 Jul ? 01:43:42 10° E 01:46:52 19° ENE 01:50:03 10° NNE visible
01 Jul ? 03:19:27 12° S 03:23:39 75° WSW 03:28:17 10° NNW visible
02 Jul ? 02:17:56 10° SE 02:22:03 33° ENE 02:26:11 10° N visible
02 Jul ? 03:55:24 12° SSW 03:59:18 37° W 04:03:35 10° NNW visible
03 Jul ? 01:19:08 10° ENE 01:20:57 12° NE 01:22:47 10° NNE visible
03 Jul ? 02:52:57 11° SSE 02:57:24 65° ENE 03:01:58 10° N visible
03 Jul ? 04:31:54 10° SW 04:35:08 19° W 04:38:24 10° NW visible
04 Jul ? 01:52:32 10° ESE 01:56:01 22° ENE 01:59:30 10° N visible
04 Jul ? 03:28:54 13° S 03:32:56 62° WSW 03:37:29 10° NNW visible
05 Jul ? 02:26:59 10° SE 02:31:15 39° ENE 02:35:31 10° N visible
05 Jul ? 04:04:52 12° SSW 04:08:37 31° W 04:12:42 10° NNW visible
06 Jul ? 01:27:40 10° E 01:30:04 14° NE 01:32:28 10° NNE visible
06 Jul ? 03:02:25 12° SSE 03:06:38 78° ENE 03:11:14 10° NNW visible
